sat.trackr.live / text

‹ back to catalog

STARLINK-3500

NORAD 51740 · 2022-016AC

PAYLOAD ACTIVE UNKNOWN

§ Identity

Operator
Country
US
Launch date
2022-02-21
Launch site
AFETR
Launch vehicle
Mass (kg)
RCS (m²)

Purposes: comms

External: N2YO · Heavens-Above · Gunter

§ Orbital elements

Epoch: 2026-09-20T01:41:02.649120Z

Period
93.85 min
Inclination
53.1606°
Eccentricity
0.0001178
Mean motion
15.34387086 rev/d
Perigee alt
461.9 km
Apogee alt
463.5 km
Semi-major
6,840.9 km
B*
2.0797e-5
RAAN
151.3924°
Arg perigee
95.2451°
Mean anomaly
264.8686°
Rev number
25,311

§ Raw data

STARLINK-35001 51740U 22016AC  26263.07016955  .00000326  00000+0  20797-4 0  99992 51740  53.1606 151.3924 0001178  95.2451 264.8686 15.34387086253115

JSON: /api/v1/satellites/51740 · /tle

For live sub-satellite position, see the globe view (requires WebGL).

§ Visibility from observer

Set your observer location to see the next 7 days of passes ≥ 10°. The values pass through the URL so the page stays shareable.

No JS? Fill the form by hand. The geolocation button needs JavaScript.